sat.trackr.live / text

‹ back to catalog

STARLINK-36821

NORAD 67880 · 2026-035B

PAYLOAD ACTIVE UNKNOWN

§ Identity

Operator
Country
US
Launch date
2026-02-21
Launch site
AFWTR
Launch vehicle
Mass (kg)
RCS (m²)

Purposes: comms

External: N2YO · Heavens-Above · Gunter

§ Orbital elements

Epoch: 2026-09-17T19:04:04.437984Z

Period
93.91 min
Inclination
97.2847°
Eccentricity
0.0002788
Mean motion
15.33414791 rev/d
Perigee alt
463.7 km
Apogee alt
467.5 km
Semi-major
6,843.8 km
B*
-3.2638e-4
RAAN
192.6114°
Arg perigee
90.5493°
Mean anomaly
269.6070°
Rev number
3,342

§ Raw data

STARLINK-368211 67880U 26035B   26260.79449581 -.00010589  00000+0 -32638-3 0  99972 67880  97.2847 192.6114 0002788  90.5493 269.6070 15.33414791 33427

JSON: /api/v1/satellites/67880 · /tle

For live sub-satellite position, see the globe view (requires WebGL).

§ Visibility from observer

Set your observer location to see the next 7 days of passes ≥ 10°. The values pass through the URL so the page stays shareable.

No JS? Fill the form by hand. The geolocation button needs JavaScript.